TimeAKST,TemperatureF,Dew PointF,Humidity,Sea Level PressureIn,VisibilityMPH,Wind Direction,Wind SpeedMPH,Gust SpeedMPH,PrecipitationIn,Events,Conditions,WindDirDegrees,DateUTC
12:53 AM,34.0,32.0,92,30.03,9.0,SE,8.1,-,0.01,Snow,Light Snow,140,2013-01-15 09:53:00
1:29 AM,33.8,32.0,93,30.03,10.0,SE,16.1,24.2,0.00,Rain,Light Rain,140,2013-01-15 10:29:00
1:53 AM,35.1,32.0,89,30.04,10.0,SE,10.4,-,0.01,Rain,Light Rain,140,2013-01-15 10:53:00
2:49 AM,35.6,32.0,87,30.04,10.0,SSE,16.1,-,0.00,Rain,Light Rain,150,2013-01-15 11:49:00
2:53 AM,35.1,32.0,89,30.04,10.0,SSE,15.0,-,0.00,Rain,Light Rain,150,2013-01-15 11:53:00
3:11 AM,33.8,32.0,93,30.04,10.0,SSE,13.8,-,0.00,Rain,Light Rain,150,2013-01-15 12:11:00
3:20 AM,33.8,32.0,93,30.04,9.0,SSE,11.5,-,0.01,Rain,Light Rain,150,2013-01-15 12:20:00
3:37 AM,33.8,32.0,93,30.04,8.0,SE,13.8,-,0.01,Snow,Light Snow,140,2013-01-15 12:37:00
3:53 AM,34.0,32.0,92,30.05,9.0,SE,12.7,-,0.01,Snow,Light Snow,140,2013-01-15 12:53:00
4:53 AM,34.0,32.0,92,30.05,6.0,SSE,15.0,-,0.01,Snow,Light Snow,150,2013-01-15 13:53:00
5:53 AM,34.0,32.0,92,30.05,8.0,SE,15.0,-,0.03,Rain-Snow,Light Rain,140,2013-01-15 14:53:00
6:09 AM,35.6,33.8,93,30.05,7.0,SSE,12.7,-,0.00,Rain-Snow,Light Rain,150,2013-01-15 15:09:00
6:22 AM,35.6,33.8,93,30.05,8.0,SSE,11.5,-,0.01,Rain-Snow,Light Rain,160,2013-01-15 15:22:00
6:53 AM,35.1,33.1,92,30.06,9.0,SSE,11.5,-,0.01,Rain,Light Rain,150,2013-01-15 15:53:00
7:53 AM,36.0,34.0,93,30.06,10.0,SE,9.2,-,0.00,,Overcast,140,2013-01-15 16:53:00
8:26 AM,35.6,33.8,93,30.07,10.0,SE,11.5,-,N/A,,Overcast,140,2013-01-15 17:26:00
8:53 AM,35.1,33.1,92,30.08,10.0,SE,9.2,-,N/A,,Overcast,130,2013-01-15 17:53:00
9:50 AM,35.6,33.8,93,30.09,10.0,SSE,11.5,-,N/A,,Overcast,150,2013-01-15 18:50:00
9:53 AM,35.1,33.1,92,30.10,10.0,SSE,10.4,-,N/A,,Overcast,150,2013-01-15 18:53:00
10:53 AM,36.0,34.0,93,30.12,10.0,SSE,11.5,-,N/A,,Overcast,160,2013-01-15 19:53:00
11:53 AM,36.0,36.0,100,30.12,10.0,SW,4.6,-,N/A,,Overcast,230,2013-01-15 20:53:00
12:12 PM,35.6,33.8,93,30.12,10.0,WNW,3.5,-,N/A,,Overcast,300,2013-01-15 21:12:00
12:29 PM,35.6,33.8,93,30.12,10.0,NNE,4.6,-,N/A,,Mostly Cloudy,30,2013-01-15 21:29:00
12:39 PM,37.4,33.8,87,30.12,10.0,North,6.9,-,N/A,,Mostly Cloudy,10,2013-01-15 21:39:00
12:53 PM,37.0,34.0,89,30.13,10.0,NE,5.8,-,N/A,,Mostly Cloudy,40,2013-01-15 21:53:00
1:09 PM,37.4,33.8,87,30.12,10.0,NNE,6.9,-,N/A,,Overcast,30,2013-01-15 22:09:00
1:34 PM,37.4,33.8,87,30.12,10.0,ENE,5.8,-,N/A,,Mostly Cloudy,60,2013-01-15 22:34:00
1:53 PM,37.9,34.0,86,30.13,10.0,North,4.6,-,N/A,,Mostly Cloudy,10,2013-01-15 22:53:00
2:00 PM,37.4,35.6,93,30.12,10.0,North,5.8,-,N/A,,Mostly Cloudy,10,2013-01-15 23:00:00
2:48 PM,37.4,33.8,87,30.12,10.0,NNE,5.8,-,N/A,,Overcast,20,2013-01-15 23:48:00
2:53 PM,37.9,34.0,86,30.13,10.0,Variable,3.5,-,N/A,,Overcast,0,2013-01-15 23:53:00
3:53 PM,36.0,33.1,89,30.15,9.0,WNW,6.9,-,0.00,Rain,Light Rain,290,2013-01-16 00:53:00
4:06 PM,35.6,33.8,93,30.15,10.0,West,5.8,-,0.00,,Overcast,280,2013-01-16 01:06:00
4:53 PM,36.0,33.1,89,30.17,10.0,Calm,Calm,-,0.00,,Overcast,0,2013-01-16 01:53:00
5:53 PM,35.1,30.9,85,30.17,10.0,Calm,Calm,-,N/A,,Overcast,0,2013-01-16 02:53:00
6:53 PM,34.0,30.0,85,30.18,10.0,WNW,4.6,-,N/A,,Overcast,300,2013-01-16 03:53:00
7:53 PM,34.0,30.9,89,30.18,10.0,WNW,4.6,-,0.00,,Overcast,290,2013-01-16 04:53:00
7:57 PM,33.8,30.2,87,30.18,10.0,West,5.8,-,N/A,,Overcast,270,2013-01-16 04:57:00
8:05 PM,33.8,32.0,93,30.18,10.0,WSW,4.6,-,N/A,,Overcast,250,2013-01-16 05:05:00
8:14 PM,33.8,32.0,93,30.18,10.0,WSW,4.6,-,N/A,,Overcast,250,2013-01-16 05:14:00
8:53 PM,33.8,32.0,93,30.18,10.0,NW,4.6,-,N/A,,Overcast,310,2013-01-16 05:53:00
9:21 PM,33.8,32.0,93,30.18,4.0,North,8.1,-,N/A,,Overcast,350,2013-01-16 06:21:00
9:24 PM,33.8,32.0,93,30.18,1.5,North,8.1,-,N/A,,Overcast,350,2013-01-16 06:24:00
9:53 PM,34.0,32.0,92,30.19,4.0,North,10.4,-,0.00,Rain,Light Rain,360,2013-01-16 06:53:00
10:03 PM,33.8,32.0,93,30.19,1.8,North,9.2,-,0.00,,Overcast,10,2013-01-16 07:03:00
10:14 PM,33.8,32.0,93,30.19,3.0,North,9.2,-,0.00,,Overcast,10,2013-01-16 07:14:00
10:37 PM,33.8,30.2,87,30.20,10.0,North,9.2,-,0.00,,Overcast,10,2013-01-16 07:37:00
10:53 PM,33.1,30.9,92,30.21,10.0,NNE,12.7,-,0.00,,Overcast,20,2013-01-16 07:53:00
11:04 PM,33.8,30.2,87,30.20,5.0,North,12.7,-,0.00,Rain,Light Rain,10,2013-01-16 08:04:00
11:18 PM,33.8,30.2,87,30.20,6.0,North,9.2,-,0.00,Rain,Light Freezing Rain,10,2013-01-16 08:18:00
11:28 PM,33.8,30.2,87,30.20,5.0,NNE,15.0,-,0.00,Rain,Light Freezing Rain,20,2013-01-16 08:28:00
11:53 PM,33.1,30.0,89,30.20,8.0,NNE,13.8,-,0.00,Rain,Light Rain,20,2013-01-16 08:53:00